Location: Cassagne
(43.1218°N, 0.9901°E)
Time: 00:54:23
(UTC+00:00)

Meteor 1-27 - Pass Details

Date: 17 February 2020
Orbit: 838 x 892 km, 81.3° (Epoch: 04 April)

Event Time Altitude Azimuth Distance (km) Brightness Sun altitude
Rises 05:25:40 0° 200° (SSW) 3,390 7.2 -16.4°
Reaches altitude 10° 05:28:07 10° 205° (SSW) 2,454 6.4 -15.9°
Maximum altitude 05:33:34 57° 283° (WNW) 986 4.2 -14.9°
Drops below altitude 10° 05:39:03 10° 2° (N) 2,464 6.6 -13.9°
Sets 05:41:32 0° 7° (N) 3,404 7.4 -13.5°
